"Pseudo-MPEC" for X67826

Created 2020 Mar 27 7:07:17 UT using Find_Orb

Click here for an explanation of pseudo-MPECs

 
 Astrometry: 
     X67826   C2020 03 19$_;[wwnV]aU7%PsWg^aC)D?1mVBBYF'AstrometryN(XKP4.ki$\D29
     X67826   C2020 03 19H/VP:gtwCrqUfMredacted;Qb`wC4clickY!9cjH.Yk\5!bherefD29
     X67826   C2020 03 19;):lM2c\x6for3:Pd]dx_$;OJb,oDvp,ejVW=hexplanationASAD29

Station data:
(D29) Purple Mountain Observatory, XuYi Station  (N32.734366 E118.463900)
   China.  Observers H. B. Zhao, B. Li, G. Zhaori, R. Q. Hong, L. F. Hu.
   Measurers H. B. Zhao, B. Li. H. Lu, G. Zhaori. 1.04-m f/1.8 Schmidt + CCD.

Orbital elements:  X67826
   Perihelion 2020 Aug 8.177526 +/- 40.1 TT =  4:15:38 (JD 2459069.677526)
Epoch 2020 Mar 19.0 TT = JDT 2458927.5   Earth MOID: 0.0586   AutoNEOCP
M 193.60733516 +/- 80               (J2000 ecliptic)
n   1.17031622 +/- 0.932            Peri.  167.17652 +/- 100
a   0.89179951 +/- 0.474            Node   171.00989 +/- 15
e   0.0492463 +/- 0.264             Incl.   13.26616 +/- 52
P   0.84/307.60d           H 19.9   G  0.15   U 12.7  SR
q 0.84788165 +/- 0.332    Q 0.93571738 +/- 10.7
From 3 observations 2020 Mar. 19 (40.7 min); mean residual 0".18
Residuals in arcseconds: 
200319 D29  .18+  .01+    200319 D29  .37-  .03-    200319 D29  .18+  .01+    

Ephemerides (geocentric):
Date (UTC) HH   RA              Dec         delta   r     elong  mag " sig PA
---- -- -- --  -------------   -----------  ------ ------ -----  --- ---- ---
2020 03 27 07  04 05 43.870   +33 14 48.71  .14776 .93245  59.8 19.9 355' 116
2020 03 27 08  04 05 47.124   +33 18 50.71  .14778 .93244  59.8 19.9 361' 116
2020 03 27 09  04 05 50.373   +33 22 52.62  .14780 .93242  59.8 19.9 366' 117
2020 03 27 10  04 05 53.614   +33 26 54.42  .14781 .93241  59.8 19.9 372' 117
2020 03 27 11  04 05 56.850   +33 30 56.11  .14783 .93240  59.8 19.9 378' 118
2020 03 27 12  04 06 00.079   +33 34 57.70  .14785 .93238  59.8 19.9 384' 119
2020 03 27 13  04 06 03.302   +33 38 59.19  .14786 .93237  59.8 19.9 391' 119
2020 03 27 14  04 06 06.519   +33 43 00.57  .14788 .93235  59.8 19.9 397' 120
2020 03 27 15  04 06 09.729   +33 47 01.85  .14790 .93234  59.8 19.9 404' 121
2020 03 27 16  04 06 12.933   +33 51 03.02  .14792 .93233  59.7 19.9 411' 121
2020 03 27 17  04 06 16.131   +33 55 04.08  .14793 .93231  59.7 19.9 418' 122
2020 03 27 18  04 06 19.322   +33 59 05.03  .14795 .93230  59.7 19.9 426' 123
2020 03 27 19  04 06 22.507   +34 03 05.88  .14797 .93229  59.7 19.9 434' 124
2020 03 27 20  04 06 25.685   +34 07 06.61  .14799 .93227  59.7 19.9 442' 125
2020 03 27 21  04 06 28.857   +34 11 07.24  .14801 .93226  59.7 19.9 450' 126
2020 03 27 22  04 06 32.023   +34 15 07.75  .14803 .93224  59.7 19.9 459' 127
2020 03 27 23  04 06 35.182   +34 19 08.16  .14804 .93223  59.7 19.9 468' 128
2020 03 28 00  04 06 38.335   +34 23 08.45  .14806 .93222  59.7 19.9 477' 129
2020 03 28 01  04 06 41.481   +34 27 08.63  .14808 .93220  59.7 19.9 486' 130
2020 03 28 02  04 06 44.621   +34 31 08.70  .14810 .93219  59.7 19.9 496' 131
2020 03 28 03  04 06 47.754   +34 35 08.65  .14812 .93217  59.7 19.9 507' 132
2020 03 28 04  04 06 50.880   +34 39 08.49  .14814 .93216  59.7 19.9 517' 133
2020 03 28 05  04 06 54.000   +34 43 08.22  .14816 .93215  59.6 19.9 528' 134
2020 03 28 06  04 06 57.114   +34 47 07.83  .14818 .93213  59.6 19.9 539' 136
2020 03 28 07  04 07 00.221   +34 51 07.32  .14820 .93212  59.6 19.9 550' 137
2020 03 28 08  04 07 03.321   +34 55 06.70  .14822 .93210  59.6 19.9 561' 138
2020 03 28 09  04 07 06.415   +34 59 05.96  .14824 .93209  59.6 19.9 572' 139
2020 03 28 10  04 07 09.502   +35 03 05.10  .14826 .93207  59.6 19.9 583' 140
2020 03 28 11  04 07 12.583   +35 07 04.13  .14828 .93206  59.6 19.9 594' 141
2020 03 28 12  04 07 15.656   +35 11 03.04  .14831 .93205  59.6 19.9 605' 142
2020 03 28 13  04 07 18.723   +35 15 01.82  .14833 .93203  59.6 19.9 616' 143
2020 03 28 14  04 07 21.784   +35 19 00.49  .14835 .93202  59.6 19.9 627' 144
2020 03 28 15  04 07 24.838   +35 22 59.04  .14837 .93200  59.6 19.9 637' 145
2020 03 28 16  04 07 27.885   +35 26 57.46  .14839 .93199  59.6 19.9 647' 146
2020 03 28 17  04 07 30.925   +35 30 55.77  .14841 .93197  59.6 19.9 656' 146
2020 03 28 18  04 07 33.958   +35 34 53.95  .14844 .93196  59.5 19.9 665' 147
2020 03 28 19  04 07 36.985   +35 38 52.01  .14846 .93195  59.5 19.9 674' 148
2020 03 28 20  04 07 40.005   +35 42 49.94  .14848 .93193  59.5 19.9 683' 148
2020 03 28 21  04 07 43.018   +35 46 47.76  .14850 .93192  59.5 19.9 691' 149
2020 03 28 22  04 07 46.024   +35 50 45.44  .14853 .93190  59.5 19.9 698' 150
2020 03 28 23  04 07 49.024   +35 54 43.01  .14855 .93189  59.5 19.9 706' 150
2020 03 29 00  04 07 52.016   +35 58 40.44  .14857 .93187  59.5 19.9 713' 151
2020 03 29 01  04 07 55.002   +36 02 37.75  .14860 .93186  59.5 19.9 720' 151
2020 03 29 02  04 07 57.980   +36 06 34.94  .14862 .93184  59.5 19.9 726' 152
2020 03 29 03  04 08 00.952   +36 10 31.99  .14864 .93183  59.5 19.9 733' 152
2020 03 29 04  04 08 03.917   +36 14 28.92  .14867 .93181  59.5 19.9 739' 153
2020 03 29 05  04 08 06.875   +36 18 25.72  .14869 .93180  59.5 19.9 745' 153
2020 03 29 06  04 08 09.826   +36 22 22.39  .14871 .93178  59.5 19.9 751' 153